Wind_Speed
15 15 15 15 15 15 16 16 15 15 15 15 15 15 15 16 16 16 16 16 17 17 17 16 16 17 18 17 18 17 17 17 17 17 17 17 17 17
17 17 16 17 17 17 16 16 16 16 16 16 17 17 16 16 17 17 17 17 17 18 18 17 17 17 17 18 18 18 19 19 19 19 19 19 18 18
18 18 17 17 18 18 18 17 17 17 17 17 18 18 17 17 17 17 18 17 18 18 18 18 18 19 19 20 20 20 20 20 21 20 20 20 19 20
18 18 18 19 19 19 19 19 19 18 18 18 18 19 18 18 18 18 18 18 18 18 19 19 20 21 21 21 21 20 21 21 21 20 20 20 21 20
19 19 19 19 19 19 20 20 20 20 20 19 19 19 19 19 19 19 18 18 18 18 19 19 21 21 21 22 22 22 22 22 22 21 21 21 22 22
20 20 20 20 19 19 20 20 21 21 21 21 21 21 20 20 20 20 20 19 19 19 19 20 20 20 20 21 22 22 23 23 22 22 22 22 22 23
20 20 20 20 20 20 21 21 21 21 21 21 21 22 21 21 21 21 21 20 20 20 20 20 21 21 21 21 21 21 22 22 22 23 23 23 23 24
20 20 21 21 21 22 22 22 22 22 22 22 21 22 21 21 21 21 21 21 21 21 21 21 22 22 22 21 21 22 23 23 23 23 23 23 24 24
20 20 20 22 22 22 23 23 23 23 23 22 23 23 23 23 23 22 22 22 22 22 22 21 22 21 22 22 22 22 23 24 24 24 24 25 25 26
21 20 21 21 22 23 23 24 23 23 23 23 23 23 23 24 24 23 23 24 24 23 23 22 22 22 23 22 21 22 22 23 24 24 25 25 25 26
21 21 22 22 22 23 24 24 23 23 24 24 24 25 25 25 25 25 25 25 25 25 24 24 23 24 24 23 23 23 24 24 24 24 25 26 26 27
22 22 22 23 22 23 23 24 24 24 24 25 25 26 26 26 26 26 26 26 26 26 26 26 26 25 25 25 25 25 25 25 25 26 26 26 27 27
22 23 23 23 23 23 23 24 24 25 25 26 26 27 27 28 28 27 27 27 27 27 28 28 27 27 26 27 27 27 27 27 26 27 27 28 28 28
22 23 23 23 23 23 23 24 25 26 26 27 27 28 28 28 28 28 28 28 28 28 29 29 28 29 28 28 28 29 29 29 29 29 29 30 30 30
22 23 23 23 23 24 24 24 25 26 27 27 27 28 28 28 28 28 28 29 29 29 29 29 29 30 30 30 30 30 30 31 31 31 31 31 31 31
21 22 22 22 23 24 25 25 25 26 27 27 28 29 29 29 29 29 29 29 29 29 29 29 30 30 30 31 31 31 32 32 33 34 33 33 33 33
23 23 23 24 24 25 26 27 27 27 28 28 28 29 29 29 29 29 29 29 30 29 30 30 31 31 31 32 32 32 32 33 34 35 34 34 34 34
24 24 24 25 25 26 26 27 27 27 28 29 29 29 29 29 29 29 30 30 30 30 30 31 32 32 32 33 33 33 34 35 35 35 35 35 35 35
23 24 24 25 25 25 26 26 26 27 27 28 28 29 29 29 30 30 30 31 31 31 32 32 32 33 33 33 34 35 35 35 36 36 36 35 35 35
24 24 25 25 25 25 25 25 26 27 27 27 28 28 28 29 30 30 30 30 31 32 32 33 33 33 34 35 35 36 36 36 36 35 35 35 34 35
24 24 25 25 25 25 26 26 26 27 27 27 27 28 28 29 29 30 30 31 32 32 33 33 33 34 34 35 35 35 35 35 35 35 35 35 35 35
24 25 25 26 26 25 25 25 25 25 26 26 27 27 27 28 29 30 31 31 32 32 33 33 33 33 33 34 34 34 34 35 35 35 35 36 36 35
25 25 25 25 25 24 23 24 25 25 26 27 28 28 28 29 29 29 29 30 30 30 30 31 31 32 33 33 33 33 34 35 35 35 35 35 35 36
Wind_Direction
269 268 267 263 263 263 262 260 259 258 257 257 257 256 258 259 261 261 262 261 260 259 260 261 259 260 259 259 258 258 258 261 263 265 267 263 264 264
268 268 267 264 262 262 261 259 258 258 258 258 258 257 259 259 260 261 261 262 261 261 259 259 258 259 261 261 259 257 258 261 263 265 267 263 262 262
270 268 267 265 263 263 263 260 259 258 258 259 260 260 260 261 261 261 261 261 261 261 260 259 258 259 260 261 260 258 259 260 262 265 267 263 262 263
268 269 269 266 264 263 263 261 259 258 259 260 260 261 262 262 263 263 261 261 262 261 261 259 259 260 260 260 260 259 260 262 263 264 263 261 261 262
266 267 268 267 264 262 263 262 259 258 258 259 259 260 262 263 263 265 266 266 264 262 262 261 261 261 260 261 261 260 260 260 262 262 262 262 262 262
268 268 267 266 265 263 262 260 259 258 258 258 258 259 261 264 264 264 264 266 266 267 266 263 262 261 262 263 263 262 261 261 260 259 261 263 264 263
268 268 266 265 265 263 262 259 258 258 259 259 260 258 260 263 264 264 262 262 265 267 267 264 261 260 263 264 264 262 260 260 261 261 262 263 264 265
266 267 264 264 265 264 262 261 259 259 258 258 260 259 260 261 263 264 262 261 262 265 266 265 265 263 262 262 261 260 259 259 261 261 260 262 264 266
264 265 265 266 266 265 262 261 260 259 258 258 258 259 261 262 262 264 264 262 261 263 265 266 267 266 265 263 261 261 261 260 260 261 261 264 266 267
266 266 265 267 266 265 264 262 262 260 259 259 259 260 262 263 263 264 265 265 262 263 264 265 266 266 266 265 262 262 263 265 261 259 262 266 268 268
267 268 267 268 268 267 265 264 263 261 260 259 261 261 262 264 265 265 265 265 264 264 264 263 264 265 264 262 262 263 263 263 261 261 264 267 268 267
270 270 270 270 271 269 266 263 262 262 261 259 260 261 262 265 266 266 266 265 264 264 264 263 263 264 262 263 263 262 262 262 262 264 266 267 267 267
270 270 271 270 270 269 266 264 262 262 261 260 261 262 263 264 265 266 266 266 264 264 263 263 263 262 263 263 264 263 262 262 264 266 267 267 268 268
271 270 271 270 269 269 269 266 263 263 262 261 261 263 264 264 265 266 266 267 266 265 264 263 263 262 262 263 263 264 263 263 264 266 267 268 268 268
272 270 270 271 271 269 269 268 266 265 263 262 263 264 264 264 265 267 267 267 266 265 264 264 264 263 263 263 263 263 263 264 265 266 268 269 268 267
273 270 270 273 273 271 270 269 268 265 264 263 264 265 266 265 266 266 267 267 267 266 265 265 264 264 265 264 264 264 264 265 266 267 268 268 268 268
275 272 272 273 275 274 273 272 271 269 266 264 265 265 266 266 266 266 266 267 267 267 266 265 265 265 265 265 265 265 265 265 267 267 268 268 268 268
275 274 274 274 276 277 275 273 273 271 268 266 265 265 266 265 266 267 266 266 266 266 266 266 266 266 266 265 266 266 266 266 267 268 268 268 268 267
275 274 275 275 277 278 276 274 273 272 270 268 267 266 266 265 266 267 267 266 266 267 267 267 268 267 266 266 267 267 267 267 267 268 268 268 267 267
276 276 276 278 277 278 277 276 275 274 271 270 268 267 267 267 267 268 268 267 267 268 268 269 269 269 268 268 268 269 268 268 267 267 267 266 267 269
276 278 279 279 278 278 278 276 275 273 272 271 270 268 268 268 268 267 268 269 269 269 269 270 270 271 271 270 270 269 269 268 267 267 268 268 269 270
277 277 279 278 277 277 276 276 275 273 271 271 270 270 270 270 270 270 269 270 269 269 269 270 271 272 273 273 271 269 268 268 267 268 268 269 269 269
277 277 278 278 278 278 276 275 274 273 272 272 272 273 273 273 271 271 271 270 270 269 269 270 272 273 274 274 272 270 270 270 269 269 270 271 270 268
Height
5828 5828 5828 5828 5828 5829 5829 5830 5831 5831 5831 5831 5831 5831 5832 5832 5832 5832 5832 5832 5832 5832 5832 5832 5832 5832 5832 5833 5834 5834 5835 5835 5835 5836 5836 5836 5837 5837
5823 5823 5823 5823 5823 5824 5824 5824 5825 5826 5826 5826 5826 5826 5827 5827 5827 5827 5827 5827 5827 5827 5827 5827 5828 5828 5828 5828 5829 5829 5830 5830 5830 5831 5831 5832 5832 5832
5817 5818 5818 5818 5818 5818 5818 5819 5819 5820 5821 5821 5821 5821 5822 5822 5822 5822 5822 5822 5822 5822 5822 5822 5823 5823 5823 5823 5823 5824 5824 5825 5825 5826 5826 5826 5827 5827
5812 5812 5812 5812 5812 5812 5813 5813 5814 5814 5815 5815 5816 5816 5816 5817 5817 5817 5817 5817 5817 5817 5817 5817 5817 5817 5818 5818 5818 5818 5819 5819 5820 5820 5820 5821 5821 5822
5806 5806 5806 5806 5806 5806 5806 5807 5807 5808 5808 5809 5810 5810 5810 5811 5811 5812 5812 5812 5811 5811 5811 5811 5811 5812 5812 5812 5812 5813 5813 5814 5814 5814 5815 5815 5816 5816
5800 5800 5800 5800 5800 5800 5800 5800 5801 5801 5802 5803 5804 5804 5804 5805 5805 5806 5806 5806 5806 5805 5805 5805 5805 5806 5806 5806 5806 5806 5807 5807 5808 5808 5809 5809 5810 5810
5793 5793 5793 5794 5794 5794 5794 5794 5794 5795 5796 5797 5797 5798 5798 5799 5799 5799 5799 5799 5799 5799 5799 5799 5799 5800 5800 5800 5800 5800 5801 5801 5802 5802 5802 5803 5803 5804
5787 5787 5787 5787 5787 5787 5787 5788 5788 5788 5789 5790 5791 5791 5792 5792 5793 5793 5793 5793 5793 5793 5793 5793 5793 5793 5793 5793 5793 5794 5794 5795 5795 5795 5796 5796 5797 5797
5780 5780 5780 5780 5780 5780 5780 5781 5781 5781 5782 5783 5784 5785 5785 5785 5786 5786 5786 5786 5786 5786 5787 5787 5786 5787 5786 5786 5787 5787 5787 5788 5788 5788 5789 5789 5790 5790
5774 5774 5773 5773 5773 5773 5773 5773 5773 5774 5775 5776 5777 5777 5778 5778 5778 5779 5779 5779 5780 5780 5780 5780 5780 5780 5780 5780 5780 5780 5781 5781 5781 5781 5782 5782 5782 5782
5767 5766 5766 5766 5765 5765 5765 5765 5766 5766 5767 5768 5769 5769 5770 5770 5771 5771 5771 5772 5772 5772 5772 5773 5773 5773 5773 5773 5773 5773 5773 5774 5774 5774 5775 5775 5775 5774
5759 5759 5759 5758 5758 5757 5757 5758 5758 5759 5759 5760 5761 5762 5762 5763 5763 5763 5763 5764 5764 5764 5764 5765 5765 5765 5766 5765 5765 5766 5766 5766 5767 5767 5767 5767 5767 5767
5752 5752 5751 5751 5751 5750 5750 5750 5750 5751 5751 5752 5753 5753 5754 5754 5754 5755 5755 5755 5756 5756 5756 5756 5757 5757 5757 5757 5757 5757 5758 5758 5759 5759 5759 5759 5759 5759
5745 5745 5744 5743 5743 5742 5742 5742 5742 5743 5743 5744 5744 5745 5745 5745 5746 5746 5746 5747 5747 5747 5747 5747 5748 5748 5748 5749 5749 5749 5749 5750 5750 5750 5750 5750 5750 5749
5738 5737 5737 5736 5735 5735 5734 5734 5734 5735 5735 5736 5736 5736 5736 5737 5737 5737 5737 5737 5737 5737 5738 5738 5738 5739 5739 5740 5740 5740 5740 5740 5741 5741 5741 5740 5740 5740
5731 5730 5729 5729 5728 5727 5727 5726 5726 5726 5727 5727 5727 5728 5728 5728 5728 5728 5728 5729 5729 5729 5728 5729 5729 5729 5730 5730 5730 5731 5730 5731 5731 5731 5731 5730 5730 5730
5724 5723 5722 5721 5720 5720 5719 5718 5718 5718 5718 5719 5719 5719 5719 5719 5719 5719 5720 5720 5720 5720 5720 5719 5719 5720 5720 5720 5720 5720 5720 5720 5720 5720 5720 5720 5719 5719
5716 5715 5715 5714 5713 5712 5711 5710 5709 5709 5709 5709 5710 5710 5710 5710 5710 5710 5710 5710 5710 5710 5710 5710 5710 5710 5710 5710 5710 5710 5709 5709 5709 5708 5708 5708 5709 5708
5709 5708 5707 5706 5705 5704 5703 5702 5701 5700 5700 5700 5700 5700 5701 5701 5701 5701 5701 5701 5701 5701 5700 5700 5699 5699 5699 5700 5700 5699 5699 5698 5698 5697 5697 5697 5697 5697
5701 5700 5699 5698 5697 5696 5695 5693 5693 5692 5691 5691 5691 5691 5691 5691 5691 5691 5691 5691 5691 5690 5690 5689 5689 5688 5688 5689 5688 5688 5686 5686 5686 5686 5686 5685 5685 5685
5694 5693 5691 5690 5689 5688 5687 5686 5684 5684 5683 5683 5683 5682 5682 5682 5682 5681 5681 5681 5681 5680 5680 5679 5678 5678 5677 5677 5677 5676 5675 5674 5674 5674 5674 5674 5674 5674
5686 5685 5683 5682 5681 5679 5678 5677 5676 5675 5675 5674 5674 5673 5673 5672 5672 5672 5672 5671 5671 5670 5669 5669 5668 5667 5666 5665 5665 5664 5664 5663 5663 5662 5662 5662 5662 5662
5678 5677 5675 5674 5673 5671 5670 5669 5668 5667 5666 5665 5665 5664 5664 5663 5663 5662 5661 5661 5660 5660 5659 5658 5657 5656 5655 5654 5653 5653 5652 5652 5652 5651 5651 5650 5650 5650